Location: El Hornillo
(40.2499°N, 5.1036°W)
Time: 18:48:15
(UTC+00:00)

Cosmos 2151 - Pass Details

Date: 05 August 2024
Orbit: 567 x 588 km, 82.5° (Epoch: 19 September)

Event Time Altitude Azimuth Distance (km) Brightness Sun altitude
Exits shadow 22:40:51 43° 359° (N) 839 4.0 -28.1°
Drops below altitude 10° 22:43:45 10° 6° (N) 1,926 6.3 -28.3°
Sets 22:45:58 0° 7° (N) 2,831 7.2 -28.5°
